Location: Newark
(48.6461°N, 4.3644°W)
Time: 10:28:49
(UTC+00:00)

S-56A Canister/Altair - Pass Details

Date: 21 January 2020
Orbit: 633 x 2499 km, 38.9° (Epoch: 19 February)

Event Time Altitude Azimuth Distance (km) Brightness Sun altitude
Rises 20:47:27 0° 208° (SSW) 3,656 11.2 -37.5°
Enters shadow 20:48:42 - 203° (SSW) 3,256 10.8 -37.7°
Reaches altitude 10° 20:52:01 10° 180° (S) 2,374 - -38.2°
Maximum altitude 20:54:02 12° 157° (SSE) 2,112 - -38.6°
Drops below altitude 10° 20:55:54 10° 134° (SE) 2,158 - -38.8°
Sets 20:59:33 0° 103° (ESE) 2,948 - -39.4°
